| time (UTC) | temp F | wind direction | speed MPH | gust MPH | rain 1hr in | rain 24hr in | rain mn in | humidity % | barometer mb |
| 20260906214033 | 79 | 99 | 4.0 | 10.0 | 0.00 | 0.00 | 0.00 | 69 | 1019.4 |
| 20260906213529 | 79 | 108 | 4.0 | 10.0 | 0.00 | 0.00 | 0.00 | 67 | 1019.5 |
| 20260906213017 | 79 | 104 | 4.0 | 9.0 | 0.00 | 0.00 | 0.00 | 68 | 1019.6 |
| 20260906212533 | 79 | 63 | 3.0 | 8.0 | 0.00 | 0.00 | 0.00 | 68 | 1019.6 |
| 20260906212020 | 79 | 80 | 3.0 | 11.0 | 0.00 | 0.00 | 0.00 | 69 | 1019.5 |
| 20260906211518 | 79 | 122 | 5.0 | 11.0 | 0.00 | 0.00 | 0.00 | 68 | 1019.7 |
| 20260906211034 | 80 | 67 | 4.0 | 9.0 | 0.00 | 0.00 | 0.00 | 67 | 1019.8 |
| 20260906210528 | 80 | 75 | 2.0 | 7.0 | 0.00 | 0.00 | 0.00 | 65 | 1019.9 |
| 20260906210029 | 80 | 117 | 2.0 | 7.0 | 0.00 | 0.00 | 0.00 | 67 | 1019.8 |
| 20260906205525 | 80 | 61 | 3.0 | 5.0 | 0.00 | 0.00 | 0.00 | 66 | 1020.1 |
| 20260906205035 | 80 | 113 | 1.0 | 6.0 | 0.00 | 0.00 | 0.00 | 66 | 1020.0 |
| 20260906204522 | 80 | 69 | 3.0 | 6.0 | 0.00 | 0.00 | 0.00 | 68 | 1020.2 |
| 20260906204038 | 79 | 69 | 3.0 | 7.0 | 0.00 | 0.00 | 0.00 | 68 | 1020.2 |
| 20260906203537 | 79 | 99 | 2.0 | 7.0 | 0.00 | 0.00 | 0.00 | 68 | 1020.2 |
| 20260906203038 | 79 | 54 | 4.0 | 9.0 | 0.00 | 0.00 | 0.00 | 67 | 1020.2 |
| 20260906202531 | 80 | 114 | 5.0 | 9.0 | 0.00 | 0.00 | 0.00 | 64 | 1020.3 |
| 20260906202035 | 80 | 339 | 1.0 | 8.0 | 0.00 | 0.00 | 0.00 | 63 | 1020.3 |
| 20260906201524 | 80 | 47 | 2.0 | 8.0 | 0.00 | 0.00 | 0.00 | 63 | 1020.3 |
| 20260906201019 | 79 | 80 | 3.0 | 8.0 | 0.00 | 0.00 | 0.00 | 65 | 1020.2 |
| 20260906200531 | 79 | 67 | 6.0 | 8.0 | 0.00 | 0.00 | 0.00 | 64 | 1020.3 |
| 20260906200033 | 79 | 130 | 3.0 | 7.0 | 0.00 | 0.00 | 0.00 | 66 | 1020.3 |
| 20260906195537 | 79 | 49 | 1.0 | 6.0 | 0.00 | 0.00 | 0.00 | 70 | 1020.2 |
| 20260906195032 | 79 | 24 | 3.0 | 9.0 | 0.00 | 0.00 | 0.00 | 69 | 1020.3 |
| 20260906194523 | 80 | 50 | 4.0 | 9.0 | 0.00 | 0.00 | 0.00 | 66 | 1020.3 |
| 20260906194036 | 81 | 26 | 3.0 | 6.0 | 0.00 | 0.00 | 0.00 | 65 | 1020.1 |
| 20260906193518 | 81 | 125 | 3.0 | 8.0 | 0.00 | 0.00 | 0.00 | 63 | 1020.2 |
| 20260906193017 | 82 | 43 | 4.0 | 6.0 | 0.00 | 0.00 | 0.00 | 64 | 1020.2 |
| 20260906192534 | 81 | 114 | 2.0 | 6.0 | 0.00 | 0.00 | 0.00 | 66 | 1020.3 |
| 20260906192030 | 81 | 47 | 3.0 | 7.0 | 0.00 | 0.00 | 0.00 | 62 | 1020.4 |
| 20260906191520 | 81 | 131 | 3.0 | 7.0 | 0.00 | 0.00 | 0.00 | 64 | 1020.5 |
| 20260906191034 | 81 | 131 | 2.0 | 7.0 | 0.00 | 0.00 | 0.00 | 65 | 1020.5 |
| 20260906190524 | 81 | 331 | 3.0 | 5.0 | 0.00 | 0.00 | 0.00 | 66 | 1020.5 |
| 20260906190057 | 81 | 67 | 3.0 | 5.0 | 0.00 | 0.00 | 0.00 | 66 | 1020.5 |
| 20260906185530 | 79 | 219 | 1.0 | 7.0 | 0.00 | 0.00 | 0.00 | 68 | 1020.8 |
| 20260906185023 | 79 | 88 | 2.0 | 7.0 | 0.00 | 0.00 | 0.00 | 66 | 1020.9 |
| 20260906184529 | 80 | 113 | 3.0 | 7.0 | 0.00 | 0.00 | 0.00 | 66 | 1020.9 |
| 20260906184021 | 79 | 165 | 1.0 | 7.0 | 0.00 | 0.00 | 0.00 | 73 | 1020.9 |
| 20260906183535 | 80 | 105 | 1.0 | 9.0 | 0.00 | 0.00 | 0.00 | 68 | 1020.8 |
| 20260906183036 | 80 | 123 | 3.0 | 9.0 | 0.00 | 0.00 | 0.00 | 69 | 1020.9 |
| 20260906182531 | 80 | 157 | 4.0 | 9.0 | 0.00 | 0.00 | 0.00 | 69 | 1020.9 |
| 20260906182046 | 79 | 98 | 3.0 | 7.0 | 0.00 | 0.00 | 0.00 | 72 | 1020.8 |
| 20260906181530 | 80 | 98 | 2.0 | 8.0 | 0.00 | 0.00 | 0.00 | 67 | 1020.7 |
| 20260906181017 | 79 | 108 | 3.0 | 8.0 | 0.00 | 0.00 | 0.00 | 68 | 1020.8 |
| 20260906180534 | 80 | 95 | 4.0 | 8.0 | 0.00 | 0.00 | 0.00 | 69 | 1020.6 |
| 20260906180023 | 79 | 93 | 3.0 | 6.0 | 0.00 | 0.00 | 0.00 | 70 | 1020.8 |
| 20260906175517 | 79 | 129 | 3.0 | 7.0 | 0.00 | 0.00 | 0.00 | 71 | 1020.8 |
| 20260906175023 | 78 | 164 | 3.0 | 7.0 | 0.00 | 0.00 | 0.00 | 77 | 1020.8 |
| 20260906174519 | 77 | 154 | 3.0 | 5.0 | 0.00 | 0.00 | 0.00 | 72 | 1021.0 |
| 20260906174035 | 77 | 119 | 1.0 | 8.0 | 0.00 | 0.00 | 0.00 | 71 | 1021.0 |
| 20260906173519 | 78 | 119 | 5.0 | 8.0 | 0.00 | 0.00 | 0.00 | 69 | 1021.0 |
| 20260906173028 | 79 | 76 | 2.0 | 7.0 | 0.00 | 0.00 | 0.00 | 71 | 1021.0 |
| 20260906172523 | 79 | 123 | 2.0 | 4.0 | 0.00 | 0.00 | 0.00 | 72 | 1021.1 |
| 20260906172019 | 78 | 178 | 2.0 | 8.0 | 0.00 | 0.00 | 0.00 | 74 | 1021.1 |
| 20260906171534 | 78 | 102 | 2.0 | 9.0 | 0.00 | 0.00 | 0.00 | 78 | 1021.2 |
| 20260906171027 | 77 | 336 | 2.0 | 10.0 | 0.00 | 0.00 | 0.00 | 76 | 1021.2 |
| 20260906170536 | 79 | 41 | 5.0 | 10.0 | 0.00 | 0.00 | 0.00 | 76 | 1021.2 |
| 20260906170031 | 78 | 76 | 3.0 | 9.0 | 0.00 | 0.00 | 0.00 | 75 | 1021.1 |
| 20260906165526 | 78 | 99 | 5.0 | 10.0 | 0.00 | 0.00 | 0.00 | 74 | 1021.1 |
| 20260906165034 | 78 | 179 | 4.0 | 10.0 | 0.00 | 0.00 | 0.00 | 78 | 1021.2 |
| 20260906164537 | 77 | 104 | 5.0 | 10.0 | 0.00 | 0.00 | 0.00 | 77 | 1021.2 |
| 20260906164031 | 78 | 55 | 3.0 | 9.0 | 0.00 | 0.00 | 0.00 | 76 | 1021.2 |
| 20260906163537 | 77 | 109 | 4.0 | 9.0 | 0.00 | 0.00 | 0.00 | 77 | 1021.4 |
| 20260906163034 | 76 | 122 | 3.0 | 6.0 | 0.00 | 0.00 | 0.00 | 80 | 1021.3 |
| 20260906162532 | 76 | 113 | 1.0 | 5.0 | 0.00 | 0.00 | 0.00 | 77 | 1021.4 |
| 20260906162020 | 76 | 117 | 1.0 | 6.0 | 0.00 | 0.00 | 0.00 | 82 | 1021.5 |
| 20260906161530 | 75 | 110 | 2.0 | 6.0 | 0.00 | 0.00 | 0.00 | 81 | 1021.6 |
| 20260906161046 | 75 | 79 | 3.0 | 6.0 | 0.00 | 0.00 | 0.00 | 78 | 1021.4 |
| 20260906160521 | 75 | 65 | 3.0 | 4.0 | 0.00 | 0.00 | 0.00 | 81 | 1021.5 |
| 20260906160021 | 75 | 337 | 2.0 | 6.0 | 0.00 | 0.00 | 0.00 | 83 | 1021.5 |
| 20260906155517 | 75 | 135 | 4.0 | 6.0 | 0.00 | 0.00 | 0.00 | 81 | 1021.4 |
| 20260906155021 | 75 | 38 | 1.0 | 4.0 | 0.00 | 0.00 | 0.00 | 84 | 1021.4 |
| 20260906154546 | 74 | 38 | 2.0 | 5.0 | 0.00 | 0.00 | 0.00 | 84 | 1021.4 |
| 20260906154040 | 74 | 77 | 2.0 | 7.0 | 0.00 | 0.00 | 0.00 | 84 | 1021.4 |
| 20260906153537 | 74 | 105 | 3.0 | 7.0 | 0.00 | 0.00 | 0.00 | 85 | 1021.4 |
| 20260906153017 | 74 | 88 | 3.0 | 6.0 | 0.00 | 0.00 | 0.00 | 85 | 1021.4 |
| 20260906152558 | 73 | 106 | 3.0 | 7.0 | 0.00 | 0.00 | 0.00 | 85 | 1021.3 |
| 20260906152030 | 73 | 113 | 4.0 | 7.0 | 0.00 | 0.00 | 0.00 | 84 | 1021.3 |
| 20260906151520 | 73 | 34 | 2.0 | 6.0 | 0.00 | 0.00 | 0.00 | 86 | 1021.2 |
| 20260906151035 | 73 | 50 | 2.0 | 6.0 | 0.00 | 0.00 | 0.00 | 85 | 1021.2 |
| 20260906150527 | 73 | 67 | 2.0 | 8.0 | 0.00 | 0.00 | 0.00 | 86 | 1021.1 |
| 20260906150036 | 73 | 130 | 5.0 | 8.0 | 0.00 | 0.00 | 0.00 | 86 | 1021.1 |
| 20260906145533 | 72 | 82 | 3.0 | 6.0 | 0.00 | 0.00 | 0.00 | 85 | 1021.1 |
| 20260906145017 | 72 | 104 | 2.0 | 6.0 | 0.00 | 0.00 | 0.00 | 87 | 1021.2 |
| 20260906144525 | 72 | 93 | 3.0 | 6.0 | 0.00 | 0.00 | 0.00 | 85 | 1021.3 |
| 20260906144020 | 72 | 109 | 2.0 | 5.0 | 0.00 | 0.00 | 0.00 | 87 | 1021.1 |
| 20260906143531 | 72 | 109 | 2.0 | 7.0 | 0.00 | 0.00 | 0.00 | 86 | 1021.1 |
| 20260906143032 | 72 | 97 | 4.0 | 7.0 | 0.00 | 0.00 | 0.00 | 86 | 1021.1 |
| 20260906142517 | 71 | 59 | 2.0 | 7.0 | 0.00 | 0.00 | 0.00 | 86 | 1021.0 |
| 20260906142032 | 71 | 84 | 4.0 | 8.0 | 0.00 | 0.00 | 0.00 | 86 | 1021.0 |
| 20260906141519 | 71 | 114 | 4.0 | 7.0 | 0.00 | 0.00 | 0.00 | 87 | 1021.0 |
| 20260906141035 | 71 | 67 | 2.0 | 7.0 | 0.00 | 0.00 | 0.00 | 87 | 1021.1 |
| 20260906140518 | 70 | 92 | 2.0 | 7.0 | 0.00 | 0.00 | 0.00 | 88 | 1021.1 |
| 20260906140024 | 70 | 103 | 4.0 | 7.0 | 0.00 | 0.00 | 0.00 | 89 | 1021.1 |
| 20260906135519 | 69 | 88 | 4.0 | 6.0 | 0.00 | 0.00 | 0.00 | 90 | 1021.2 |
| 20260906135034 | 69 | 54 | 4.0 | 6.0 | 0.00 | 0.00 | 0.00 | 91 | 1021.1 |
| 20260906134544 | 68 | 90 | 2.0 | 4.0 | 0.00 | 0.00 | 0.00 | 92 | 1021.1 |
| 20260906134017 | 68 | 95 | 2.0 | 6.0 | 0.00 | 0.00 | 0.00 | 92 | 1021.1 |
| 20260906133519 | 67 | 107 | 3.0 | 6.0 | 0.00 | 0.00 | 0.00 | 93 | 1021.0 |
| 20260906133027 | 67 | 59 | 2.0 | 5.0 | 0.00 | 0.00 | 0.00 | 94 | 1021.0 |
| 20260906132524 | 66 | 42 | 2.0 | 6.0 | 0.00 | 0.00 | 0.00 | 94 | 1021.0 |
| 20260906132018 | 66 | 58 | 2.0 | 6.0 | 0.00 | 0.00 | 0.00 | 94 | 1021.0 |
| 20260906131518 | 66 | 44 | 3.0 | 6.0 | 0.00 | 0.00 | 0.00 | 95 | 1021.0 |
| 20260906131029 | 65 | 68 | 2.0 | 4.0 | 0.00 | 0.00 | 0.00 | 95 | 1021.1 |
| 20260906130525 | 65 | 68 | 2.0 | 5.0 | 0.00 | 0.00 | 0.00 | 95 | 1021.1 |
| 20260906130048 | 64 | 48 | 2.0 | 6.0 | 0.00 | 0.00 | 0.00 | 95 | 1021.1 |
| 20260906125521 | 64 | 40 | 1.0 | 5.0 | 0.00 | 0.00 | 0.00 | 95 | 1021.0 |
| 20260906125037 | 64 | 40 | 3.0 | 5.0 | 0.00 | 0.00 | 0.00 | 95 | 1021.0 |
| 20260906124518 | 64 | 23 | 2.0 | 5.0 | 0.00 | 0.00 | 0.00 | 95 | 1021.0 |
| 20260906124031 | 63 | 355 | 2.0 | 5.0 | 0.00 | 0.00 | 0.00 | 95 | 1021.0 |
| 20260906123536 | 63 | 45 | 2.0 | 5.0 | 0.00 | 0.00 | 0.00 | 95 | 1020.9 |
| 20260906123048 | 63 | 45 | 3.0 | 4.0 | 0.00 | 0.00 | 0.00 | 95 | 1020.8 |
| 20260906122524 | 62 | 45 | 1.0 | 3.0 | 0.00 | 0.00 | 0.00 | 95 | 1020.7 |
| 20260906122022 | 62 | 45 | 2.0 | 5.0 | 0.00 | 0.00 | 0.00 | 95 | 1020.7 |
| 20260906121537 | 62 | 45 | 2.0 | 5.0 | 0.00 | 0.00 | 0.00 | 95 | 1020.7 |
| 20260906121033 | 62 | 34 | 2.0 | 4.0 | 0.00 | 0.00 | 0.00 | 95 | 1020.6 |
| 20260906120530 | 62 | 355 | 0.0 | 4.0 | 0.00 | 0.00 | 0.00 | 95 | 1020.6 |
| 20260906120020 | 62 | 355 | 2.0 | 4.0 | 0.00 | 0.00 | 0.00 | 95 | 1020.6 |
| 20260906115535 | 62 | 342 | 1.0 | 3.0 | 0.00 | 0.00 | 0.00 | 95 | 1020.6 |
| 20260906115020 | 62 | 342 | 2.0 | 3.0 | 0.00 | 0.00 | 0.00 | 94 | 1020.5 |
| 20260906114535 | 62 | 342 | 2.0 | 3.0 | 0.00 | 0.00 | 0.00 | 95 | 1020.5 |
| 20260906114033 | 62 | 342 | 1.0 | 3.0 | 0.00 | 0.00 | 0.00 | 95 | 1020.5 |
| 20260906113517 | 62 | 342 | 1.0 | 4.0 | 0.00 | 0.00 | 0.00 | 95 | 1020.5 |
| 20260906113028 | 62 | 355 | 2.0 | 4.0 | 0.00 | 0.00 | 0.00 | 95 | 1020.4 |
| 20260906112524 | 62 | 25 | 2.0 | 4.0 | 0.00 | 0.00 | 0.00 | 94 | 1020.2 |
| 20260906112019 | 62 | 25 | 0.0 | 0.0 | 0.00 | 0.00 | 0.00 | 94 | 1020.0 |
| 20260906111536 | 62 | 25 | 0.0 | 0.0 | 0.00 | 0.00 | 0.00 | 94 | 1019.8 |
| 20260906111050 | 63 | 25 | 0.0 | 2.0 | 0.00 | 0.00 | 0.00 | 94 | 1019.8 |
| 20260906110523 | 63 | 25 | 1.0 | 2.0 | 0.00 | 0.00 | 0.00 | 94 | 1019.7 |
| 20260906110046 | 62 | 25 | 0.0 | 4.0 | 0.00 | 0.00 | 0.00 | 94 | 1019.6 |
| 20260906105556 | 62 | 25 | 1.0 | 4.0 | 0.00 | 0.00 | 0.00 | 94 | 1019.6 |
| 20260906105030 | 62 | 25 | 0.0 | 4.0 | 0.00 | 0.00 | 0.00 | 94 | 1019.5 |
| 20260906104533 | 62 | 25 | 2.0 | 3.0 | 0.00 | 0.00 | 0.00 | 94 | 1019.6 |
| 20260906104028 | 62 | 25 | 1.0 | 3.0 | 0.00 | 0.00 | 0.00 | 94 | 1019.6 |
| 20260906103541 | 62 | 25 | 2.0 | 3.0 | 0.00 | 0.00 | 0.00 | 94 | 1019.7 |
| 20260906103018 | 62 | 25 | 0.0 | 1.0 | 0.00 | 0.00 | 0.00 | 94 | 1019.7 |
| 20260906102532 | 63 | 25 | 0.0 | 0.0 | 0.00 | 0.00 | 0.00 | 94 | 1019.7 |
| 20260906102035 | 63 | 25 | 0.0 | 0.0 | 0.00 | 0.00 | 0.00 | 94 | 1019.6 |
| 20260906101546 | 63 | 25 | 0.0 | 3.0 | 0.00 | 0.00 | 0.00 | 94 | 1019.5 |
| 20260906101022 | 63 | 25 | 0.0 | 3.0 | 0.00 | 0.00 | 0.00 | 94 | 1019.4 |
| 20260906100537 | 63 | 25 | 0.0 | 0.0 | 0.00 | 0.00 | 0.00 | 94 | 1019.3 |
| 20260906100030 | 63 | 25 | 0.0 | 2.0 | 0.00 | 0.01 | 0.00 | 94 | 1019.3 |
| 20260906095536 | 63 | 25 | 0.0 | 4.0 | 0.00 | 0.01 | 0.00 | 94 | 1019.4 |
| 20260906095051 | 63 | 25 | 2.0 | 4.0 | 0.00 | 0.01 | 0.00 | 94 | 1019.4 |
| 20260906094519 | 63 | 25 | 2.0 | 5.0 | 0.00 | 0.01 | 0.00 | 94 | 1019.4 |
| 20260906094032 | 63 | 25 | 2.0 | 5.0 | 0.00 | 0.01 | 0.00 | 94 | 1019.5 |
| 20260906093522 | 63 | 36 | 3.0 | 5.0 | 0.00 | 0.01 | 0.00 | 94 | 1019.6 |
| 20260906093031 | 64 | 110 | 1.0 | 3.0 | 0.00 | 0.01 | 0.00 | 94 | 1019.6 |
| 20260906092536 | 64 | 110 | 1.0 | 4.0 | 0.00 | 0.01 | 0.00 | 94 | 1019.7 |
| 20260906092018 | 64 | 110 | 2.0 | 4.0 | 0.00 | 0.01 | 0.00 | 94 | 1019.7 |
| 20260906091538 | 64 | 110 | 1.0 | 4.0 | 0.00 | 0.01 | 0.00 | 94 | 1019.7 |
| 20260906091048 | 64 | 110 | 2.0 | 4.0 | 0.00 | 0.01 | 0.00 | 94 | 1019.4 |
| 20260906090521 | 64 | 110 | 2.0 | 3.0 | 0.00 | 0.01 | 0.00 | 94 | 1019.4 |
| 20260906090033 | 64 | 110 | 2.0 | 3.0 | 0.00 | 0.01 | 0.00 | 94 | 1019.2 |
| 20260906085529 | 64 | 110 | 1.0 | 3.0 | 0.00 | 0.01 | 0.00 | 93 | 1019.3 |
| 20260906085023 | 64 | 110 | 1.0 | 4.0 | 0.00 | 0.01 | 0.00 | 93 | 1019.3 |
| 20260906084527 | 64 | 110 | 2.0 | 4.0 | 0.00 | 0.01 | 0.00 | 93 | 1019.3 |
| 20260906084020 | 64 | 110 | 2.0 | 4.0 | 0.00 | 0.01 | 0.00 | 93 | 1019.3 |
| 20260906083536 | 64 | 110 | 1.0 | 4.0 | 0.00 | 0.01 | 0.00 | 94 | 1019.4 |
| 20260906083034 | 63 | 110 | 1.0 | 4.0 | 0.00 | 0.01 | 0.00 | 93 | 1019.4 |
| 20260906082532 | 63 | 110 | 2.0 | 4.0 | 0.00 | 0.01 | 0.00 | 93 | 1019.2 |
| 20260906082025 | 63 | 110 | 2.0 | 4.0 | 0.00 | 0.01 | 0.00 | 93 | 1019.0 |
| 20260906081530 | 63 | 110 | 2.0 | 4.0 | 0.00 | 0.01 | 0.00 | 92 | 1019.2 |
| 20260906081023 | 63 | 110 | 1.0 | 3.0 | 0.00 | 0.01 | 0.00 | 92 | 1019.1 |
| 20260906080520 | 63 | 110 | 1.0 | 3.0 | 0.00 | 0.01 | 0.00 | 92 | 1019.1 |
| 20260906080029 | 63 | 110 | 1.0 | 2.0 | 0.00 | 0.01 | 0.00 | 92 | 1019.0 |
| 20260906075525 | 63 | 110 | 0.0 | 1.0 | 0.00 | 0.01 | 0.00 | 92 | 1019.1 |
| 20260906075018 | 63 | 110 | 0.0 | 2.0 | 0.00 | 0.01 | 0.00 | 92 | 1019.0 |
| 20260906074532 | 64 | 110 | 1.0 | 2.0 | 0.00 | 0.01 | 0.00 | 92 | 1019.1 |
| 20260906074047 | 64 | 110 | 0.0 | 0.0 | 0.00 | 0.01 | 0.00 | 92 | 1019.2 |
| 20260906073542 | 64 | 110 | 0.0 | 0.0 | 0.00 | 0.01 | 0.00 | 92 | 1019.1 |
| 20260906073022 | 64 | 110 | 0.0 | 0.0 | 0.00 | 0.01 | 0.00 | 92 | 1019.1 |
| 20260906072517 | 64 | 110 | 0.0 | 1.0 | 0.00 | 0.01 | 0.00 | 92 | 1019.3 |
| 20260906072038 | 64 | 110 | 0.0 | 1.0 | 0.00 | 0.01 | 0.00 | 92 | 1019.2 |
| 20260906071535 | 64 | 110 | 0.0 | 1.0 | 0.00 | 0.01 | 0.00 | 92 | 1019.2 |
| 20260906071030 | 64 | 110 | 0.0 | 2.0 | 0.00 | 0.01 | 0.00 | 92 | 1019.2 |
| 20260906070527 | 64 | 110 | 0.0 | 3.0 | 0.00 | 0.01 | 0.00 | 92 | 1019.4 |
| 20260906070032 | 64 | 110 | 2.0 | 3.0 | 0.00 | 0.01 | 0.00 | 92 | 1019.4 |
| 20260906065540 | 65 | 110 | 1.0 | 3.0 | 0.00 | 0.01 | 0.00 | 92 | 1019.4 |
| 20260906065035 | 65 | 110 | 2.0 | 3.0 | 0.00 | 0.01 | 0.00 | 92 | 1019.4 |
| 20260906064524 | 65 | 110 | 2.0 | 3.0 | 0.00 | 0.01 | 0.00 | 92 | 1019.4 |
| 20260906064020 | 65 | 110 | 1.0 | 3.0 | 0.00 | 0.01 | 0.00 | 92 | 1019.4 |
| 20260906063537 | 65 | 110 | 2.0 | 3.0 | 0.00 | 0.01 | 0.00 | 92 | 1019.6 |
| 20260906063052 | 65 | 110 | 1.0 | 4.0 | 0.00 | 0.01 | 0.00 | 92 | 1019.4 |
| 20260906062517 | 65 | 110 | 0.0 | 2.0 | 0.00 | 0.01 | 0.00 | 92 | 1019.5 |
| 20260906062033 | 65 | 110 | 0.0 | 0.0 | 0.00 | 0.01 | 0.00 | 92 | 1019.4 |
| 20260906061532 | 65 | 110 | 0.0 | 0.0 | 0.00 | 0.01 | 0.00 | 92 | 1019.5 |
| 20260906061057 | 66 | 110 | 0.0 | 2.0 | 0.00 | 0.01 | 0.00 | 92 | 1019.5 |
| 20260906060523 | 66 | 110 | 0.0 | 2.0 | 0.00 | 0.01 | 0.00 | 92 | 1019.5 |
| 20260906060018 | 66 | 110 | 0.0 | 1.0 | 0.00 | 0.01 | 0.00 | 92 | 1019.5 |
| 20260906055537 | 66 | 110 | 0.0 | 1.0 | 0.00 | 0.01 | 0.00 | 92 | 1019.5 |
| 20260906055030 | 66 | 110 | 0.0 | 1.0 | 0.00 | 0.01 | 0.00 | 92 | 1019.5 |
| 20260906054530 | 66 | 110 | 0.0 | 1.0 | 0.00 | 0.01 | 0.00 | 91 | 1019.5 |
| 20260906054023 | 66 | 110 | 0.0 | 2.0 | 0.00 | 0.01 | 0.00 | 91 | 1019.3 |
| 20260906053534 | 66 | 110 | 0.0 | 2.0 | 0.00 | 0.01 | 0.00 | 92 | 1019.3 |
| 20260906053032 | 67 | 110 | 1.0 | 3.0 | 0.00 | 0.01 | 0.00 | 92 | 1019.4 |
| 20260906052519 | 67 | 110 | 1.0 | 3.0 | 0.00 | 0.01 | 0.00 | 91 | 1019.3 |
| 20260906052034 | 67 | 110 | 0.0 | 3.0 | 0.00 | 0.01 | 0.00 | 91 | 1019.3 |
| 20260906051554 | 67 | 110 | 0.0 | 3.0 | 0.00 | 0.01 | 0.00 | 91 | 1019.4 |
| 20260906051029 | 67 | 110 | 2.0 | 4.0 | 0.00 | 0.01 | 0.00 | 91 | 1019.3 |
| 20260906050521 | 67 | 110 | 2.0 | 4.0 | 0.00 | 0.01 | 0.00 | 91 | 1019.2 |
| 20260906050025 | 67 | 110 | 1.0 | 3.0 | 0.00 | 0.01 | 0.01 | 91 | 1019.2 |
| 20260906045520 | 67 | 110 | 1.0 | 4.0 | 0.00 | 0.01 | 0.01 | 91 | 1019.1 |
| 20260906045035 | 67 | 110 | 2.0 | 4.0 | 0.00 | 0.01 | 0.01 | 91 | 1019.1 |
| 20260906044534 | 67 | 110 | 2.0 | 3.0 | 0.00 | 0.01 | 0.01 | 91 | 1019.1 |
| 20260906044028 | 68 | 110 | 2.0 | 3.0 | 0.00 | 0.01 | 0.01 | 90 | 1019.1 |
| 20260906043518 | 68 | 110 | 1.0 | 3.0 | 0.00 | 0.01 | 0.01 | 91 | 1019.0 |
| 20260906043036 | 68 | 110 | 1.0 | 3.0 | 0.00 | 0.01 | 0.01 | 91 | 1019.1 |
| 20260906042533 | 68 | 110 | 2.0 | 3.0 | 0.00 | 0.01 | 0.01 | 90 | 1019.1 |
| 20260906042018 | 68 | 110 | 2.0 | 3.0 | 0.00 | 0.01 | 0.01 | 90 | 1019.0 |
| 20260906041536 | 68 | 110 | 1.0 | 3.0 | 0.00 | 0.01 | 0.01 | 90 | 1018.9 |
| 20260906041026 | 69 | 110 | 1.0 | 3.0 | 0.00 | 0.01 | 0.01 | 90 | 1019.0 |
| 20260906040521 | 69 | 110 | 0.0 | 3.0 | 0.00 | 0.01 | 0.01 | 90 | 1019.0 |
| 20260906040019 | 69 | 110 | 1.0 | 4.0 | 0.00 | 0.01 | 0.01 | 90 | 1018.8 |
| 20260906035531 | 69 | 110 | 0.0 | 4.0 | 0.00 | 0.01 | 0.01 | 90 | 1018.6 |
| 20260906035044 | 69 | 110 | 1.0 | 7.0 | 0.00 | 0.01 | 0.01 | 90 | 1018.6 |
| 20260906034521 | 69 | 104 | 3.0 | 7.0 | 0.00 | 0.01 | 0.01 | 90 | 1018.6 |
| 20260906034031 | 69 | 113 | 3.0 | 6.0 | 0.00 | 0.01 | 0.01 | 90 | 1018.7 |
| 20260906033540 | 69 | 75 | 3.0 | 6.0 | 0.00 | 0.01 | 0.01 | 89 | 1018.8 |
| 20260906033026 | 70 | 117 | 2.0 | 6.0 | 0.00 | 0.01 | 0.01 | 89 | 1018.8 |
| 20260906032524 | 70 | 48 | 3.0 | 8.0 | 0.00 | 0.01 | 0.01 | 89 | 1018.9 |
| 20260906032036 | 70 | 86 | 3.0 | 9.0 | 0.00 | 0.01 | 0.01 | 89 | 1018.8 |
| 20260906031530 | 70 | 92 | 4.0 | 9.0 | 0.00 | 0.01 | 0.01 | 89 | 1018.8 |
| 20260906031024 | 70 | 65 | 4.0 | 8.0 | 0.00 | 0.01 | 0.01 | 89 | 1018.6 |
| 20260906030520 | 70 | 86 | 2.0 | 6.0 | 0.00 | 0.01 | 0.01 | 89 | 1018.7 |
| 20260906030032 | 70 | 69 | 3.0 | 7.0 | 0.00 | 0.01 | 0.01 | 89 | 1018.6 |
| 20260906025530 | 70 | 107 | 4.0 | 7.0 | 0.00 | 0.01 | 0.01 | 89 | 1018.6 |
| 20260906025039 | 71 | 107 | 3.0 | 6.0 | 0.00 | 0.01 | 0.01 | 89 | 1018.5 |
| 20260906024516 | 71 | 98 | 3.0 | 6.0 | 0.00 | 0.01 | 0.01 | 88 | 1018.4 |
| 20260906024031 | 71 | 116 | 3.0 | 10.0 | 0.00 | 0.01 | 0.01 | 88 | 1018.4 |
| 20260906023542 | 71 | 118 | 4.0 | 10.0 | 0.00 | 0.01 | 0.01 | 88 | 1018.1 |
| 20260906023020 | 71 | 72 | 3.0 | 7.0 | 0.00 | 0.01 | 0.01 | 88 | 1018.1 |
| 20260906022531 | 72 | 96 | 3.0 | 11.0 | 0.00 | 0.01 | 0.01 | 87 | 1018.1 |
| 20260906022037 | 72 | 69 | 3.0 | 11.0 | 0.00 | 0.01 | 0.01 | 87 | 1018.0 |
| 20260906021523 | 72 | 59 | 5.0 | 11.0 | 0.00 | 0.01 | 0.01 | 87 | 1018.0 |
| 20260906021021 | 72 | 123 | 3.0 | 11.0 | 0.00 | 0.01 | 0.01 | 87 | 1017.9 |
| 20260906020535 | 72 | 102 | 4.0 | 12.0 | 0.00 | 0.01 | 0.01 | 87 | 1017.7 |
| 20260906020045 | 72 | 93 | 6.0 | 12.0 | 0.00 | 0.01 | 0.01 | 88 | 1017.7 |
| 20260906015534 | 72 | 91 | 2.0 | 11.0 | 0.00 | 0.01 | 0.01 | 88 | 1017.5 |
| 20260906015038 | 73 | 103 | 5.0 | 11.0 | 0.00 | 0.01 | 0.01 | 88 | 1017.2 |
| 20260906014535 | 73 | 75 | 4.0 | 7.0 | 0.00 | 0.01 | 0.01 | 88 | 1017.2 |
| 20260906014029 | 73 | 76 | 3.0 | 7.0 | 0.00 | 0.01 | 0.01 | 88 | 1017.1 |
| 20260906013523 | 73 | 92 | 3.0 | 7.0 | 0.00 | 0.01 | 0.01 | 88 | 1017.0 |
| 20260906013048 | 73 | 78 | 2.0 | 9.0 | 0.00 | 0.01 | 0.01 | 88 | 1017.0 |
| 20260906012524 | 73 | 44 | 2.0 | 9.0 | 0.00 | 0.01 | 0.01 | 87 | 1017.0 |
| 20260906012039 | 73 | 57 | 4.0 | 6.0 | 0.00 | 0.01 | 0.01 | 87 | 1016.9 |
| 20260906011539 | 73 | 65 | 3.0 | 6.0 | 0.00 | 0.01 | 0.01 | 87 | 1016.9 |
| 20260906011034 | 73 | 75 | 2.0 | 8.0 | 0.00 | 0.01 | 0.01 | 86 | 1017.0 |
| 20260906010525 | 73 | 51 | 3.0 | 6.0 | 0.00 | 0.01 | 0.01 | 86 | 1017.1 |
| 20260906010032 | 73 | 63 | 2.0 | 7.0 | 0.00 | 0.01 | 0.01 | 86 | 1017.2 |
| 20260906005529 | 73 | 63 | 3.0 | 7.0 | 0.00 | 0.01 | 0.01 | 86 | 1017.3 |
| 20260906005023 | 73 | 78 | 4.0 | 7.0 | 0.00 | 0.01 | 0.01 | 86 | 1017.3 |
| 20260906004555 | 73 | 19 | 2.0 | 5.0 | 0.00 | 0.01 | 0.01 | 87 | 1017.3 |
| 20260906004025 | 73 | 74 | 2.0 | 6.0 | 0.00 | 0.01 | 0.01 | 87 | 1017.5 |
| 20260906003521 | 73 | 53 | 3.0 | 5.0 | 0.00 | 0.01 | 0.01 | 87 | 1017.3 |
| 20260906003028 | 73 | 30 | 1.0 | 3.0 | 0.00 | 0.01 | 0.01 | 87 | 1017.2 |
| 20260906002524 | 73 | 30 | 1.0 | 4.0 | 0.00 | 0.01 | 0.01 | 86 | 1017.3 |
| 20260906002039 | 74 | 30 | 1.0 | 5.0 | 0.00 | 0.01 | 0.01 | 85 | 1017.3 |
| 20260906001533 | 74 | 30 | 2.0 | 5.0 | 0.00 | 0.01 | 0.01 | 85 | 1017.3 |
| 20260906001027 | 74 | 59 | 2.0 | 6.0 | 0.00 | 0.01 | 0.01 | 85 | 1017.2 |
| 20260906000520 | 75 | 22 | 3.0 | 7.0 | 0.00 | 0.01 | 0.01 | 84 | 1017.3 |
| 20260906000028 | 75 | 51 | 3.0 | 6.0 | 0.00 | 0.01 | 0.01 | 84 | 1017.2 |
| 20260905235521 | 75 | 24 | 3.0 | 6.0 | 0.00 | 0.01 | 0.01 | 83 | 1017.2 |
| 20260905235031 | 75 | 44 | 4.0 | 7.0 | 0.00 | 0.01 | 0.01 | 82 | 1017.2 |
| 20260905234519 | 75 | 74 | 3.0 | 8.0 | 0.00 | 0.01 | 0.01 | 82 | 1017.3 |
| 20260905234035 | 76 | 46 | 4.0 | 10.0 | 0.00 | 0.01 | 0.01 | 81 | 1017.2 |
| 20260905233519 | 76 | 41 | 4.0 | 7.0 | 0.00 | 0.01 | 0.01 | 79 | 1017.3 |
| 20260905232530 | 77 | 55 | 2.0 | 10.0 | 0.00 | 0.01 | 0.01 | 78 | 1017.4 |
| 20260905232020 | 77 | 44 | 4.0 | 9.0 | 0.00 | 0.01 | 0.01 | 79 | 1017.3 |
| 20260905231538 | 78 | 59 | 4.0 | 8.0 | 0.00 | 0.01 | 0.01 | 78 | 1017.3 |
| 20260905231033 | 78 | 22 | 4.0 | 8.0 | 0.00 | 0.01 | 0.01 | 77 | 1017.3 |
| 20260905230530 | 78 | 35 | 4.0 | 13.0 | 0.00 | 0.01 | 0.01 | 77 | 1017.3 |
| 20260905230030 | 78 | 61 | 4.0 | 13.0 | 0.00 | 0.01 | 0.01 | 77 | 1017.2 |
| 20260905225522 | 78 | 47 | 4.0 | 7.0 | 0.00 | 0.01 | 0.01 | 77 | 1017.2 |
| 20260905225018 | 78 | 67 | 2.0 | 6.0 | 0.00 | 0.01 | 0.01 | 79 | 1017.3 |
| 20260905224556 | 78 | 44 | 4.0 | 6.0 | 0.00 | 0.01 | 0.01 | 79 | 1017.3 |
| 20260905224048 | 77 | 38 | 2.0 | 9.0 | 0.00 | 0.01 | 0.01 | 80 | 1017.4 |
| 20260905223525 | 77 | 38 | 4.0 | 9.0 | 0.00 | 0.01 | 0.01 | 79 | 1017.4 |
| 20260905223038 | 77 | 40 | 4.0 | 12.0 | 0.00 | 0.01 | 0.01 | 78 | 1017.3 |
| 20260905222533 | 78 | 15 | 5.0 | 13.0 | 0.00 | 0.01 | 0.01 | 76 | 1017.3 |
| 20260905222017 | 78 | 87 | 8.0 | 16.0 | 0.00 | 0.01 | 0.01 | 75 | 1017.3 |
| 20260905221528 | 79 | 40 | 8.0 | 16.0 | 0.00 | 0.01 | 0.01 | 75 | 1017.3 |
| 20260905221022 | 79 | 48 | 5.0 | 12.0 | 0.00 | 0.01 | 0.01 | 77 | 1017.1 |
| 20260905220532 | 79 | 88 | 5.0 | 12.0 | 0.00 | 0.01 | 0.01 | 76 | 1016.9 |
| 20260905220031 | 79 | 53 | 7.0 | 10.0 | 0.00 | 0.01 | 0.01 | 77 | 1016.9 |
| 20260905215554 | 79 | 17 | 4.0 | 10.0 | 0.00 | 0.01 | 0.01 | 76 | 1016.8 |
| 20260905215025 | 79 | 40 | 5.0 | 12.0 | 0.00 | 0.01 | 0.01 | 78 | 1016.9 |